This is the latest recevied weather packets stored in our database for station/object N7WSS. If no packets are shown the sender has not sent any weather packets the latest 10 day(s).
| Time | Temp. | Humidity | Pressure | Rain* | Wind** | Luminosity | Snow |
|---|---|---|---|---|---|---|---|
| 1787589003 | 31.11° C | 40% | 1018.1 hPa | 0 mm | - | - | - |
| 1787588699 | 31.67° C | 42% | 1018.3 hPa | 0 mm | - | - | - |
| 1787588395 | 31.11° C | 40% | 1018.5 hPa | 0 mm | - | - | - |
| 1787588090 | 30.56° C | 41% | 1018.4 hPa | 0 mm | - | - | - |
| 1787587786 | 30.56° C | 41% | 1018.4 hPa | 0 mm | - | - | - |
| 1787587486 | 31.67° C | 41% | 1018.4 hPa | 0 mm | - | - | - |
| 1787587184 | 31.67° C | 40% | 1018.3 hPa | 0 mm | - | - | - |
| 1787586879 | 30.56° C | 42% | 1018.4 hPa | 0 mm | - | - | - |
| 1787586575 | 30° C | 44% | 1018.3 hPa | 0 mm | - | - | - |
| 1787586270 | 29.44° C | 46% | 1018.5 hPa | 0 mm | - | - | - |
| 1787585967 | 28.89° C | 47% | 1018.1 hPa | 0 mm | - | - | - |
| 1787585667 | 28.89° C | 47% | 1018.4 hPa | 0 mm | - | - | - |
| 1787585366 | 28.89° C | 48% | 1018.4 hPa | 0 mm | - | - | - |
| 1787585061 | 28.89° C | 48% | 1018 hPa | 0 mm | - | - | - |
| 1787584757 | 28.33° C | 48% | 1018.3 hPa | 0 mm | - | - | - |
| 1787584455 | 28.33° C | 48% | 1018 hPa | 0 mm | - | - | - |
| 1787584154 | 28.33° C | 47% | 1018 hPa | 0 mm | - | - | - |
| 1787583849 | 28.33° C | 47% | 1018.3 hPa | 0 mm | - | - | - |
| 1787583544 | 28.89° C | 45% | 1017.8 hPa | 0 mm | - | - | - |
| 1787583243 | 28.33° C | 47% | 1018 hPa | 0 mm | - | - | - |
| 1787582938 | 27.78° C | 47% | 1017.8 hPa | 0 mm | - | - | - |
| 1787582633 | 28.33° C | 47% | 1017.9 hPa | 0 mm | - | - | - |
| 1787582329 | 27.78° C | 47% | 1017.9 hPa | 0 mm | - | - | - |
| 1787582028 | 27.78° C | 47% | 1017.9 hPa | 0 mm | - | - | - |
| 1787581723 | 27.22° C | 48% | 1017.8 hPa | 0 mm | - | - | - |
* Rain latest hour (hover to see other rain measurements)
** Current wind speed in m/s (hover to see current wind gust speed)